| time (UTC) | temp F | wind direction | speed MPH | gust MPH | rain 1hr in | rain 24hr in | rain mn in | humidity % | barometer mb |
| 20260901220748 | 100 | 65 | 1.0 | 6.0 | 0.00 | 0.00 | 0.00 | 38 | 1009.7 |
| 20260901215804 | 100 | 50 | 2.0 | 7.0 | 0.00 | 0.00 | 0.00 | 39 | 1009.8 |
| 20260901214800 | 100 | 92 | 3.0 | 7.0 | 0.00 | 0.00 | 0.00 | 38 | 1009.9 |
| 20260901213743 | 100 | 277 | 2.0 | 7.0 | 0.00 | 0.00 | 0.00 | 38 | 1009.9 |
| 20260901210414 | 98 | 171 | 2.0 | 12.0 | 0.00 | 0.00 | 0.00 | 40 | 1010.3 |
| 20260901205346 | 98 | 83 | 3.0 | 12.0 | 0.00 | 0.00 | 0.00 | 42 | 1010.5 |
| 20260901204352 | 100 | 5 | 1.0 | 7.0 | 0.00 | 0.00 | 0.00 | 40 | 1010.6 |
| 20260901203352 | 99 | 183 | 2.0 | 7.0 | 0.00 | 0.00 | 0.00 | 41 | 1010.7 |
| 20260901202316 | 98 | 117 | 2.0 | 9.0 | 0.00 | 0.00 | 0.00 | 44 | 1010.9 |
| 20260901201336 | 97 | 157 | 2.0 | 12.0 | 0.00 | 0.00 | 0.00 | 45 | 1011.0 |
| 20260901200331 | 96 | 116 | 2.0 | 12.0 | 0.00 | 0.00 | 0.00 | 45 | 1011.2 |
| 20260901195345 | 97 | 33 | 1.0 | 11.0 | 0.00 | 0.00 | 0.00 | 45 | 1011.4 |
| 20260901194408 | 97 | 107 | 3.0 | 11.0 | 0.00 | 0.00 | 0.00 | 44 | 1011.5 |
| 20260901193336 | 97 | 117 | 3.0 | 9.0 | 0.00 | 0.00 | 0.00 | 44 | 1011.6 |
| 20260901192317 | 96 | 129 | 1.0 | 8.0 | 0.00 | 0.00 | 0.00 | 46 | 1011.6 |
| 20260901191319 | 96 | 184 | 1.0 | 7.0 | 0.00 | 0.00 | 0.00 | 45 | 1011.7 |
| 20260901185209 | 97 | 259 | 2.0 | 10.0 | 0.00 | 0.00 | 0.00 | 46 | 1012.0 |
| 20260901184228 | 95 | 108 | 2.0 | 8.0 | 0.00 | 0.00 | 0.00 | 48 | 1012.1 |
| 20260901183253 | 96 | 117 | 2.0 | 11.0 | 0.00 | 0.00 | 0.00 | 46 | 1012.4 |
| 20260901182240 | 96 | 119 | 4.0 | 11.0 | 0.00 | 0.00 | 0.00 | 46 | 1012.5 |
| 20260901181301 | 96 | 131 | 3.0 | 10.0 | 0.00 | 0.00 | 0.00 | 47 | 1012.6 |
| 20260901180255 | 95 | 318 | 3.0 | 10.0 | 0.00 | 0.00 | 0.00 | 47 | 1012.7 |
| 20260901175259 | 96 | 132 | 3.0 | 11.0 | 0.00 | 0.00 | 0.00 | 48 | 1013.0 |
| 20260901174306 | 96 | 157 | 3.0 | 11.0 | 0.00 | 0.00 | 0.00 | 47 | 1013.2 |
| 20260901172108 | 95 | 134 | 2.0 | 6.0 | 0.00 | 0.00 | 0.00 | 49 | 1013.4 |
| 20260901165944 | 94 | 164 | 3.0 | 10.0 | 0.00 | 0.00 | 0.00 | 50 | 1013.6 |
| 20260901164929 | 94 | 101 | 2.0 | 8.0 | 0.00 | 0.00 | 0.00 | 49 | 1013.7 |
| 20260901163914 | 95 | 120 | 2.0 | 8.0 | 0.00 | 0.00 | 0.00 | 49 | 1013.8 |
| 20260901162848 | 94 | 198 | 1.0 | 6.0 | 0.00 | 0.00 | 0.00 | 51 | 1013.8 |
| 20260901160647 | 92 | 228 | 1.0 | 5.0 | 0.00 | 0.00 | 0.00 | 53 | 1014.0 |
| 20260901155648 | 91 | 218 | 1.0 | 4.0 | 0.00 | 0.00 | 0.00 | 54 | 1014.0 |
| 20260901154615 | 91 | 317 | 1.0 | 3.0 | 0.00 | 0.00 | 0.00 | 56 | 1014.0 |
| 20260901153629 | 90 | 44 | 0.0 | 4.0 | 0.00 | 0.00 | 0.00 | 56 | 1014.0 |
| 20260901151433 | 88 | 244 | 0.0 | 2.0 | 0.00 | 0.00 | 0.00 | 62 | 1013.9 |
| 20260901150424 | 87 | 252 | 1.0 | 5.0 | 0.00 | 0.00 | 0.00 | 64 | 1014.0 |
| 20260901145403 | 87 | 302 | 1.0 | 5.0 | 0.00 | 0.00 | 0.00 | 69 | 1014.0 |
| 20260901143323 | 85 | 222 | 1.0 | 7.0 | 0.00 | 0.00 | 0.00 | 72 | 1014.0 |
| 20260901142348 | 84 | 238 | 1.0 | 7.0 | 0.00 | 0.00 | 0.00 | 74 | 1014.0 |
| 20260901141324 | 84 | 157 | 0.0 | 1.0 | 0.00 | 0.00 | 0.00 | 78 | 1014.2 |
| 20260901140329 | 83 | 238 | 1.0 | 6.0 | 0.00 | 0.00 | 0.00 | 79 | 1014.2 |
| 20260901135325 | 82 | 337 | 1.0 | 6.0 | 0.00 | 0.00 | 0.00 | 82 | 1014.2 |
| 20260901134326 | 81 | 283 | 1.0 | 6.0 | 0.00 | 0.00 | 0.00 | 83 | 1014.0 |
| 20260901133345 | 80 | 240 | 1.0 | 5.0 | 0.00 | 0.00 | 0.00 | 86 | 1013.8 |
| 20260901132339 | 79 | 259 | 0.0 | 5.0 | 0.00 | 0.00 | 0.00 | 87 | 1013.7 |
| 20260901130152 | 77 | 238 | 0.0 | 2.0 | 0.00 | 0.00 | 0.00 | 90 | 1013.6 |
| 20260901125213 | 77 | 238 | 0.0 | 2.0 | 0.00 | 0.00 | 0.00 | 90 | 1013.5 |
| 20260901124213 | 76 | 238 | 0.0 | 0.0 | 0.00 | 0.00 | 0.00 | 90 | 1013.4 |
| 20260901123213 | 76 | 238 | 0.0 | 1.0 | 0.00 | 0.00 | 0.00 | 90 | 1013.2 |
| 20260901122225 | 76 | 238 | 0.0 | 1.0 | 0.00 | 0.00 | 0.00 | 90 | 1013.2 |
| 20260901121202 | 76 | 238 | 0.0 | 0.0 | 0.00 | 0.00 | 0.00 | 89 | 1013.2 |
| 20260901120209 | 77 | 238 | 0.0 | 2.0 | 0.00 | 0.00 | 0.00 | 89 | 1013.2 |
| 20260901115139 | 77 | 252 | 0.0 | 1.0 | 0.00 | 0.00 | 0.00 | 88 | 1013.2 |
| 20260901114144 | 77 | 257 | 0.0 | 4.0 | 0.00 | 0.00 | 0.00 | 88 | 1013.2 |
| 20260901113119 | 77 | 234 | 0.0 | 4.0 | 0.00 | 0.00 | 0.00 | 88 | 1013.0 |
| 20260901110947 | 77 | 178 | 0.0 | 3.0 | 0.00 | 0.00 | 0.00 | 87 | 1012.8 |
| 20260901105948 | 77 | 236 | 0.0 | 3.0 | 0.00 | 0.00 | 0.00 | 87 | 1012.9 |
| 20260901104941 | 78 | 234 | 1.0 | 5.0 | 0.00 | 0.00 | 0.00 | 87 | 1012.9 |
| 20260901102758 | 77 | 215 | 1.0 | 6.0 | 0.00 | 0.00 | 0.00 | 86 | 1012.8 |
| 20260901101747 | 77 | 230 | 1.0 | 6.0 | 0.00 | 0.00 | 0.00 | 86 | 1012.9 |
| 20260901100729 | 77 | 194 | 1.0 | 5.0 | 0.00 | 0.00 | 0.00 | 85 | 1013.0 |
| 20260901095744 | 77 | 219 | 2.0 | 5.0 | 0.00 | 0.00 | 0.00 | 84 | 1013.0 |
| 20260901093628 | 78 | 175 | 2.0 | 6.0 | 0.00 | 0.00 | 0.00 | 83 | 1013.2 |
| 20260901092610 | 78 | 194 | 2.0 | 5.0 | 0.00 | 0.00 | 0.00 | 82 | 1013.2 |
| 20260901091557 | 78 | 175 | 2.0 | 7.0 | 0.00 | 0.00 | 0.00 | 82 | 1013.2 |
| 20260901090559 | 78 | 207 | 1.0 | 7.0 | 0.00 | 0.00 | 0.00 | 82 | 1013.1 |
| 20260901084514 | 78 | 210 | 1.0 | 5.0 | 0.00 | 0.00 | 0.00 | 83 | 1013.0 |
| 20260901083536 | 78 | 169 | 1.0 | 5.0 | 0.00 | 0.00 | 0.00 | 83 | 1012.9 |
| 20260901082557 | 79 | 221 | 2.0 | 6.0 | 0.00 | 0.00 | 0.00 | 82 | 1013.0 |
| 20260901081529 | 79 | 191 | 2.0 | 6.0 | 0.00 | 0.00 | 0.00 | 82 | 1013.0 |
| 20260901080536 | 79 | 186 | 2.0 | 6.0 | 0.00 | 0.00 | 0.00 | 81 | 1013.0 |
| 20260901075550 | 79 | 199 | 2.0 | 7.0 | 0.00 | 0.00 | 0.00 | 81 | 1013.1 |
| 20260901074545 | 80 | 167 | 3.0 | 7.0 | 0.00 | 0.00 | 0.00 | 80 | 1013.0 |
| 20260901073553 | 80 | 188 | 2.0 | 7.0 | 0.00 | 0.00 | 0.00 | 79 | 1013.1 |
| 20260901072541 | 80 | 194 | 2.0 | 7.0 | 0.00 | 0.00 | 0.00 | 78 | 1013.1 |
| 20260901071603 | 80 | 200 | 2.0 | 6.0 | 0.00 | 0.00 | 0.00 | 77 | 1013.2 |
| 20260901070617 | 80 | 178 | 2.0 | 5.0 | 0.00 | 0.00 | 0.00 | 76 | 1013.2 |
| 20260901065625 | 81 | 196 | 2.0 | 5.0 | 0.00 | 0.00 | 0.00 | 75 | 1013.2 |
| 20260901064602 | 81 | 161 | 3.0 | 8.0 | 0.00 | 0.00 | 0.00 | 75 | 1013.1 |
| 20260901063547 | 81 | 161 | 3.0 | 8.0 | 0.00 | 0.00 | 0.00 | 74 | 1013.0 |
| 20260901062526 | 81 | 186 | 2.0 | 6.0 | 0.00 | 0.00 | 0.00 | 73 | 1012.8 |
| 20260901061504 | 82 | 169 | 3.0 | 8.0 | 0.00 | 0.00 | 0.00 | 72 | 1012.7 |
| 20260901060506 | 82 | 176 | 3.0 | 8.0 | 0.00 | 0.00 | 0.00 | 71 | 1012.7 |
| 20260901055434 | 82 | 149 | 4.0 | 8.0 | 0.00 | 0.00 | 0.00 | 70 | 1012.7 |
| 20260901053254 | 83 | 206 | 4.0 | 9.0 | 0.00 | 0.00 | 0.00 | 70 | 1012.6 |
| 20260901052236 | 83 | 184 | 4.0 | 11.0 | 0.00 | 0.00 | 0.00 | 69 | 1012.5 |
| 20260901051248 | 84 | 162 | 4.0 | 12.0 | 0.00 | 0.00 | 0.00 | 69 | 1012.5 |
| 20260901050254 | 84 | 226 | 5.0 | 12.0 | 0.00 | 0.00 | 0.00 | 68 | 1012.5 |
| 20260901044111 | 85 | 173 | 4.0 | 10.0 | 0.00 | 0.00 | 0.00 | 68 | 1012.4 |
| 20260901043050 | 85 | 184 | 5.0 | 11.0 | 0.00 | 0.00 | 0.00 | 67 | 1012.4 |
| 20260901042036 | 85 | 139 | 4.0 | 11.0 | 0.00 | 0.00 | 0.00 | 67 | 1012.4 |
| 20260901041021 | 86 | 174 | 4.0 | 13.0 | 0.00 | 0.00 | 0.00 | 66 | 1012.4 |
| 20260901040006 | 86 | 190 | 5.0 | 13.0 | 0.00 | 0.00 | 0.00 | 66 | 1012.3 |
| 20260901035008 | 86 | 172 | 4.0 | 12.0 | 0.00 | 0.00 | 0.00 | 65 | 1012.3 |
| 20260901034026 | 86 | 196 | 5.0 | 12.0 | 0.00 | 0.00 | 0.00 | 64 | 1012.3 |
| 20260901033019 | 86 | 115 | 5.0 | 12.0 | 0.00 | 0.00 | 0.00 | 62 | 1012.3 |
| 20260901032006 | 86 | 128 | 4.0 | 10.0 | 0.00 | 0.00 | 0.00 | 58 | 1012.2 |
| 20260901030947 | 87 | 144 | 4.0 | 10.0 | 0.00 | 0.00 | 0.00 | 56 | 1012.1 |
| 20260901025952 | 87 | 139 | 3.0 | 10.0 | 0.00 | 0.00 | 0.00 | 52 | 1011.9 |
| 20260901024950 | 88 | 146 | 2.0 | 9.0 | 0.00 | 0.00 | 0.00 | 50 | 1011.8 |
| 20260901023932 | 88 | 132 | 0.0 | 2.0 | 0.00 | 0.00 | 0.00 | 49 | 1011.5 |
| 20260901022941 | 88 | 125 | 1.0 | 5.0 | 0.00 | 0.00 | 0.00 | 48 | 1011.3 |
| 20260901021927 | 89 | 139 | 1.0 | 6.0 | 0.00 | 0.00 | 0.00 | 47 | 1011.3 |
| 20260901015743 | 89 | 144 | 0.0 | 2.0 | 0.00 | 0.00 | 0.00 | 46 | 1010.9 |
| 20260901014735 | 90 | 120 | 1.0 | 2.0 | 0.00 | 0.00 | 0.00 | 46 | 1010.7 |
| 20260901013741 | 90 | 116 | 0.0 | 2.0 | 0.00 | 0.00 | 0.00 | 45 | 1010.7 |
| 20260901012724 | 91 | 111 | 0.0 | 2.0 | 0.00 | 0.00 | 0.00 | 45 | 1010.6 |
| 20260901011711 | 92 | 132 | 0.0 | 5.0 | 0.00 | 0.00 | 0.00 | 44 | 1010.5 |
| 20260901010641 | 92 | 109 | 1.0 | 5.0 | 0.00 | 0.00 | 0.00 | 44 | 1010.4 |
| 20260901005622 | 93 | 100 | 1.0 | 3.0 | 0.00 | 0.00 | 0.00 | 43 | 1010.4 |
| 20260901004553 | 94 | 127 | 1.0 | 5.0 | 0.00 | 0.00 | 0.00 | 43 | 1010.4 |
| 20260901003601 | 94 | 170 | 3.0 | 6.0 | 0.00 | 0.00 | 0.00 | 42 | 1010.4 |
| 20260901002608 | 95 | 148 | 3.0 | 6.0 | 0.00 | 0.00 | 0.00 | 41 | 1010.3 |
| 20260901001619 | 95 | 141 | 3.0 | 7.0 | 0.00 | 0.00 | 0.00 | 41 | 1010.2 |
| 20260901000621 | 96 | 155 | 3.0 | 10.0 | 0.00 | 0.00 | 0.00 | 40 | 1010.2 |
| 20260831235607 | 96 | 175 | 2.0 | 10.0 | 0.00 | 0.00 | 0.00 | 40 | 1010.2 |
| 20260831234555 | 97 | 130 | 3.0 | 9.0 | 0.00 | 0.00 | 0.00 | 39 | 1010.1 |
| 20260831233541 | 97 | 94 | 4.0 | 9.0 | 0.00 | 0.00 | 0.00 | 38 | 1010.2 |
| 20260831232535 | 98 | 196 | 2.0 | 8.0 | 0.00 | 0.00 | 0.00 | 38 | 1010.1 |
| 20260831231526 | 98 | 121 | 3.0 | 18.0 | 0.00 | 0.00 | 0.00 | 39 | 1010.2 |
| 20260831230517 | 98 | 192 | 4.0 | 18.0 | 0.00 | 0.00 | 0.00 | 38 | 1010.3 |
| 20260831225515 | 99 | 189 | 4.0 | 10.0 | 0.00 | 0.00 | 0.00 | 39 | 1010.3 |
| 20260831224521 | 99 | 186 | 4.0 | 10.0 | 0.00 | 0.00 | 0.00 | 38 | 1010.3 |
| 20260831223510 | 99 | 153 | 4.0 | 10.0 | 0.00 | 0.00 | 0.00 | 38 | 1010.3 |
| 20260831222517 | 99 | 201 | 3.0 | 10.0 | 0.00 | 0.00 | 0.00 | 38 | 1010.4 |
| 20260831221452 | 99 | 127 | 2.0 | 8.0 | 0.00 | 0.00 | 0.00 | 37 | 1010.5 |